CZ-6A DEB, 60672

Orbit data source: Space-Track

CZ-6A DEB, 60672 is space debris in LEO originally from a launch on Tue, 06 Aug 2024 UTC launched from the Taiyaun Space Center, China (TSC). Debris objects in space refer to the collection of defunct objects orbiting the Earth. Examples of debris include non-operational satellites, rocket bodies, and fragments generated from explosions, collisions, or faulty payload assembly.

Loading next visibility...
Identifier
60672, 2024-140BZ
Orbit
LEO
Country
Flag of CNCN / PRC
Related business
Manufacturer
SAST
Mission
Spacecraft
Bus & Motor
Unknown
Mass
Unknown
Launch date (UTC)
2024-08-06 (2 years ago)
Launch vehicle
Unknown
Launch site
Taiyaun Space Center, China (TSC)
Object type
Payload
Rocket body
Debris
Shape & HBR
Unknown shape, 0.4 m
Radar Cross Section
Medium (>0.1 m² and <1 m²)

Expand to show TLE details & history
Last TLE update: 10 hours ago

TLE from 10 hours ago
0 CZ-6A DEB
1 60672U 24140BZ  26171.45117808  .00005842  00000-0  63198-3 0  9992
2 60672  88.7397 244.2265 0144808 148.2971 212.7077 14.80658074100265
Epoch: 2026-06-20T10:49Z
TLE epoch observation values (Epoch: 2026-06-20T10:49:41.786Z)
Latitude
-0.00002°
Longitude
173.13678°
Altitude
716.187 km
Speed
7.451 km/s
True Right ascension
16h 16m 54s
True Declination
0° 00' 00"
Sunlit
Object was in full shadow at epoch
Visualization orbit readout
Latitude
Unknown
Longitude
Unknown
Altitude
Unknown
Speed
Unknown
Apparent Right ascension
Unknown
Apparent Declination
Unknown
Sunlit
N/A
Visualization observer readout
Local Sidereal Time
07:20:53
Azimuth
Unknown
Elevation
Unknown
Doppler factor
Unknown
Orbital elements
Apogee altitude
725.511 km
Perigee altitude
522.715 km
Semi-major axis
7,002.25 km
Eccentricity
0.01448
Inclination
88.7397°
RAAN
244.2265°
Arg. of periapsis
148.2971°
True anomaly
211.82454°
Mean anomaly
212.7077°
Eccentric anomaly
212.26478°
Mean motion
3.70413 °/min
Orbital period
97.19 mins
BSTAR
0.00063198
Loading maneuver chart data...
Computing Atmospheric mass density...
Loading historical data...
Loading historical data...
Loading historical data...
Loading historical data...
Loading historical data...
Loading historical data...
Loading historical data...

Documentation

Showing up to 5 results
|